Regional Weather Roundup
Issued by NWS

Home | Current Version | Previous Version | Graphics & Text | Print | Product List | Glossary Off
Versions: 1 2 3 4 5 6 7 8 9 10 11 12 13 14 15 16 17 18 19 20 21 22 23 24 25 26 27 28 29 30 31 32 33 34 35 36 37 38 39 40 41 42 43 44 45 46 47 48 49 50

000
ASUS43 KMKX 230500
RWRWI

WISCONSIN REGIONAL WEATHER ROUNDUP
NATIONAL WEATHER SERVICE MILWAUKEE/SULLIVAN WI
1200 AM CDT TUE MAY 23 2017

NOTE: "FAIR" INDICATES FEW OR NO CLOUDS BELOW 12,000 FEET WITH NO
SIGNIFICANT WEATHER AND/OR OBSTRUCTIONS TO VISIBILITY.

WIZ001-002-006>008-014>016-023>028-230600-
NORTHWEST WISCONSIN

CITY           SKY/WX    TMP DP  RH WIND       PRES   REMARKS
SUPERIOR ARPT  NOT AVBL
ASHLAND        CLOUDY    48  45  89 CALM      29.83S
HAYWARD        CLOUDY    43  41  93 CALM      29.83S FOG
SIREN          CLOUDY    43  41  95 CALM      29.84S
CUMBERLAND     CLOUDY    45  43  93 CALM      29.83S
RICE LAKE      CLOUDY    48  46  93 CALM      29.84S
CHETEK         CLOUDY    47  46  96 CALM      29.83S
LADYSMITH      PTCLDY    44  42  95 CALM      29.84F
EAU CLAIRE     NOT AVBL
MENOMONIE      CLOUDY    54  47  77 CALM      29.82S
NEW RICHMOND   CLOUDY    50  45  80 CALM      29.83F
OSCEOLA        CLOUDY    48  48 100 CALM      29.86S
$$

WIZ003>005-009-010-017-018-230600-
NORTH CENTRAL WISCONSIN

CITY           SKY/WX    TMP DP  RH WIND       PRES   REMARKS
MANITOWISH WTR PTCLDY    44  44 100 CALM      29.83S
ARBOR VITAE    MOCLDY    46  44  93 CALM      29.83F
WOODRUFF       MOCLDY    46  44  93 CALM      29.83F
RHINELANDER    CLEAR     41  39  93 CALM      29.84F
EAGLE RIVER    CLOUDY    47  46  96 CALM      29.83F
LAND O LAKES   MOCLDY    46  44  95 CALM      29.85S
PHILLIPS       PTCLDY    41  41 100 CALM      29.82F
TOMAHAWK       CLEAR     39  38  96 CALM      29.84F
MEDFORD        CLOUDY    46  42  87 NE3       29.82S
MERRILL        PTCLDY    44  44  97 NE3       29.84S
$$

WIZ029-030-035-036-043>047-230600-
CENTRAL WISCONSIN

CITY           SKY/WX    TMP DP  RH WIND       PRES   REMARKS
WAUSAU         CLEAR     47  42  83 E3        29.82R
MOSINEE        PTCLDY    46  43  87 NE6       29.84S
MARSHFIELD     CLOUDY    51  43  74 E7        29.81F
STEVENS POINT  PTCLDY    47  43  85 NE3       29.83F
WAUPACA        MOCLDY    56  47  71 CALM      29.84R
WAUTOMA        CLOUDY    55  51  86 MISG        N/A
WISC RAPIDS    CLOUDY    53  45  74 NE5       29.83S
CAMP DOUGLAS   TSTM      54  52  94 N7        29.81S
$$

WIZ011>013-019>022-031-037>040-048>050-230600-
NORTHEAST WISCONSIN

CITY           SKY/WX    TMP DP  RH WIND       PRES   REMARKS
ANTIGO         CLEAR     43  40  88 CALM      29.84S
SHAWANO        CLEAR     52  46  82 CALM      29.85S
OCONTO         CLEAR     44  43  98 CALM      29.85S
STURGEON BAY   PTCLDY    48  45  89 E3        29.86S
GREEN BAY      CLEAR     52  48  86 E7        29.85S
MANITOWOC      NOT AVBL
APPLETON       CLOUDY    57  45  62 NE5       29.82S
CLINTONVILLE   CLEAR     50  45  81 E6        29.84S
OSHKOSH        CLOUDY    54  51  90 S8        29.81F
$$

WIZ032>034-041-042-053>061-230600-
SOUTHWEST WISCONSIN

CITY           SKY/WX    TMP DP  RH WIND       PRES   REMARKS
LA CROSSE      LGT RAIN  57  55  93 SE5       29.81S
SPARTA         RAIN      53  53  99 E7        29.82F
VIROQUA        CLOUDY    54  52  93 SW6       29.83R
BOSCOBEL       LGT RAIN  54  53  97 CALM      29.83F
PRAIRIE DU CHI DRIZZLE   54  50  87 CALM      29.82F
PLATTEVILLE    CLOUDY    57  56  99 S5        29.82F
$$

WIZ056-057-062-063-064-067-068-230600-
SOUTH CENTRAL WISCONSIN

CITY           SKY/WX    TMP DP  RH WIND       PRES   REMARKS
REEDSBURG      CLOUDY    57  55  92 S7        29.80F
BARABOO/DELLS  DRIZZLE   56  52  85 S6        29.81F
LONE ROCK      NOT AVBL
MINERAL POINT  RAIN      55  54  94 S15       29.79F
MADISON        LGT RAIN  56  54  93 SW6       29.83R
MIDDLETON      CLOUDY    56  54  92 W5        29.84F
WATERTOWN      MOCLDY    56  56 100 S7        29.84S
MONROE         MOCLDY    55  54  94 S9        29.84F
JANESVILLE     PTCLDY    57  55  94 S8        29.85S
$$

WIZ051-052-058>065-066-070>072-230600-
SOUTHEAST WISCONSIN

CITY           SKY/WX    TMP DP  RH WIND       PRES   REMARKS
MILWAUKEE      CLOUDY    62  53  72 SW9       29.85F
WAUKESHA       CLOUDY    55  52  88 S12       29.86F
MILWAUKEE/TIMM   N/A     59  50  72 SW7       29.86S
RACINE         CLOUDY    60  52  74 SW9G18    29.87S
KENOSHA        PTCLDY    59  53  80 SW9       29.86F
FOND DU LAC    PTCLDY    55  50  83 S7        29.83S
SHEBOYGAN      PTCLDY    51  49  92 S5        29.83S
WEST BEND      CLOUDY    55  54  94 CALM      29.84S
JUNEAU         CLOUDY    56  54  92 S6        29.85S
$$

LSZ147-162-230600-
LAKE SUPERIOR

STATION/POSITION TIME  TEMP    WIND        PRES    WAVE
                       AIR SEA DIR/SP/G            HT/PER
                 (UTC) (F)     (DEG/KT/KT) (MB)    (FT/S)
W MID LAKE BUOY  0350   40 37  230/  4/  6 1010.5F   1/ 4
DEVILS ISLAND    0400   48     220/  9/  9 1010.3R
PORT WING        0430   49     170/  1/  2 1010.5R
SAXON HARBOR     0440   49     190/  3/  5 1010.2S
$$

LMZ867-665-643>646-230600-
LAKE MICHIGAN

STATION/POSITION TIME  TEMP    WIND        PRES    WAVE
                       AIR SEA DIR/SP/G            HT/PER
                 (UTC) (F)     (DEG/KT/KT) (MB)    (FT/S)
CHAMBERS ISLAND  0440   43        CALM     1010.8R
N MID LAKE BUOY  0350   41 39  180/  6/  8 1012.3R   3/ 6
NORTHPORT PIER   0420   46     240/  2/  3 1010.8
KEWAUNEE LAKESHO 0430   50      30/  5/  7 1010.6F
SHEBOYGAN LAKESH 0400   55     190/  4/  5 1010.1F
PORT WASHINGTON  0440   51     190/  6/  9 1011.2F
ATWATER BUOY     0439   59     220/ 12/ 14 1010.6F
MILWAUKEE LAKESH 0430   62     230/ 11/ 13   N/A
S MID LAKE BUOY  0350   51 45  230/ 14/ 14 1012.1F   1/ 3
KENOSHA   LAKESH 0400   62     230/  8/ 16 1011.2
$$

TC  - TEMPERATURE IN CELSIUS
VSB - VISIBILITY IN STATUTE MILES
WCI - WIND CHILL INDEX
HX  - HEAT INDEX




USA.gov is the U.S. government's official web portal to all federal, state and local government web resources and services.